星链-2030 (STARLINK-2030 )

导读 | 星芒AI

STARLINK-2030 是星链计划中的一颗先进通信卫星,预计在2030年前后部署。该卫星采用最新一代的可展开天线和激光通信技术,旨在提升全球互联网覆盖的稳定性和速度。作为星链第二代卫星的重要组成部分,STARLINK-2030 将进一步优化低轨卫星网络的性能,支持更多用户接入高速互联网服务,尤其在偏远和网络基础设施薄弱的地区发挥关键作用。

基本信息
目录编号:
47647
目录名称:
STARLINK-2030
国际标识:
2021-012AD
轨道中心:
EARTH
卫星名称:
星链-2030
卫星全名:
星链-2030 (STARLINK-2030 )
卫星状态:
已陨落 最后检测时间 2025-07-04
发射日期:
2021-02-16 UTC
国别 :
美国 (US)
星等 :
--
轨道信息
数据来源 国际轨道数据
星历时间: 2025-07-04T01:23:45+0800
轨道信息已过期165天
半长轴: 6529.236km
偏心率: 0.0012024
轨道倾角: 53.023°
近地点辐角 240.002°
升交点赤经 73.353°
平近点角 229.869°
近地点: 143.25km
远地点: 158.952km
周期: 87.509分钟
每日圈数: 16.455432
详细信息
固有亮度:
5
最大亮度:
2.5
卫星平台:
Starlink V1.0
覆盖范围:
全球
运营商:
太空探索技术公司
运营商所在国:
美国
制造商(研发单位):
太空探索技术公司
制造商所在国:
美国
使用方式:
暂无
卫星简介
星链(Starlink)计划是由太空探索技术公司(SpaceX)提出的一个巨型低轨卫星互联网星座项目,计划在2019年至2024年间在太空搭建由约1.2万颗卫星组成的“星链”网络,其中1584颗将部署在地球上空550千米处的近地轨道,并从2020年开始工作。该卫星仍在工作。